Regional Weather Roundup
Issued by NWS

Current Version | Previous Version | Text Only | Print | Product List | Glossary On
Versions: 1 2 3 4 5 6 7 8 9 10 11 12 13 14 15 16 17 18 19 20 21 22 23 24 25 26 27 28 29 30 31 32 33 34 35 36 37 38 39 40 41 42 43 44 45 46 47 48 49
000
ASUS44 KBMX 230210
RWRAL

ALABAMA REGIONAL WEATHER ROUNDUP
NATIONAL WEATHER SERVICE BIRMINGHAM AL
800 PM CST MON DEC 22 2014

NOTE: "FAIR" INDICATES FEW OR NO CLOUDS BELOW 12,000 FEET
WITH NO SIGNIFICANT WEATHER AND/OR OBSTRUCTIONS TO VISIBILITY.

THE REMARK "TC" DENOTES TEMPERATURE IN DEGREES CELSIUS.

ALZ001>011-014-016>018-020-230300-
NORTH ALABAMA

CITY           SKY/WX    TMP DP  RH WIND       PRES   REMARKS
MUSCLE SHOALS  LGT RAIN  54  51  90 SE13      29.74R
HUNTSVILLE     CLOUDY    51  49  92 SE8       29.78R FOG
DECATUR        CLOUDY    50  48  93 SE15      29.78R
HALEYVILLE     CLOUDY    52  52 100 SE12G20   29.77R FOG
GADSDEN        CLOUDY    48  45  87 NE5       29.85R
$$

ALZ012-013-022-023-030>036-040>044-230300-
WEST CENTRAL ALABAMA

CITY           SKY/WX    TMP DP  RH WIND       PRES   REMARKS
TUSCALOOSA     CLOUDY    56  53  90 SE8       29.79R
$$

ALZ015-024>027-033>036-040>044-230300-
CENTRAL ALABAMA

CITY           SKY/WX    TMP DP  RH WIND       PRES   REMARKS
BIRMINGHAM     CLOUDY    53  50  89 E5        29.83R
MONTGOMERY     CLOUDY    54  52  93 E8        29.84R FOG
SHELBY CO ARPT CLOUDY    53  51  93 VRB3      29.83R
MAXWELL AFB    DRIZZLE   53  52  97 E8        29.84R
GREENVILLE     CLOUDY    57  55  93 SE3       29.82R FOG
$$

ALZ019-021-028-029-037-038-045>048-230300-
EAST CENTRAL ALABAMA

CITY           SKY/WX    TMP DP  RH WIND       PRES   REMARKS
ANNISTON       CLOUDY    49  46  90 E12       29.85S
ALEXANDER CITY CLOUDY    54  50  86 E8        29.85F
AUBURN         CLOUDY    46  45  93 E8        29.89S VSB 3/4
$$

ALZ051>064-230300-
SOUTHWEST ALABAMA

CITY           SKY/WX    TMP DP  RH WIND       PRES   REMARKS
MOBILE         CLOUDY    65  65 100 S8        29.79R
BROOKLEY FIELD PTCLDY    64  63  96 S3        29.79R
EVERGREEN      CLOUDY    62  59  90 E5        29.81R
$$

ALZ049-050-065>069-230300-
SOUTHEAST ALABAMA

CITY           SKY/WX    TMP DP  RH WIND       PRES   REMARKS
DOTHAN         FOG       55  55 100 E7        29.89S VSB 1
OZARK          CLOUDY    56  55  94 NE6       29.85R
TROY           CLOUDY    55  54  96 E5        29.85S
EUFAULA        CLOUDY    54  52  93 NE3       29.88R FOG
$$



USA.gov is the U.S. government's official web portal to all federal, state and local government web resources and services.